{"data":{"norad_id":69210,"intl_designator":"2026-114AE","name":"STARLINK-37402","alt_names":[],"object_type":"PAYLOAD","status":"ACTIVE","operator":null,"country":"US","launch_date":"2026-05-25","launch_site_code":"AFETR","launch_vehicle":null,"mission":null,"orbit_class":"UNKNOWN","rcs_meters":null,"size_class":null,"mass_kg":null,"dimensions":null,"purposes":["comms"],"wikipedia_slug":null,"has_3d_model":false,"image_url":null,"decayed_at":null,"tle_current":{"epoch":"2026-09-19T23:59:17.744352Z","epoch_age_seconds":70203,"freshness":"FRESH","line1":"1 69210U 26114AE  26262.99951093  .00014098  00000+0  42740-3 0  9996","line2":"2 69210  53.1583 115.7346 0000979  97.5340 262.5774 15.34415038 19372","mean_motion":15.34415038,"eccentricity":9.79e-5,"inclination_deg":53.1583,"raan_deg":115.7346,"arg_perigee_deg":97.534,"mean_anomaly_deg":262.5774,"bstar":0.0004274,"rev_number":1937,"period_min":93.846838328497,"perigee_km":461.98883058322,"apogee_km":463.32825835083,"semimajor_km":6840.795544467,"source":"CELESTRAK","updated_at":"2026-09-20T09:00:44.101455Z"}}}